EN

Hourly Weather Abdaevo

Today, 13 June, Sunday

Time Temperature Precipitation Wind Pressure Humidity
00:00 +13°C° 0 mm 2 mps 743 mmHg 98%
01:00 +13°C° 0 mm 1 mps 743 mmHg 97%
02:00 +13°C° 0 mm 1 mps 743 mmHg 97%
03:00 +13°C° 0 mm 1 mps 742 mmHg 97%
04:00 +14°C° 0 mm 1 mps 743 mmHg 94%
05:00 +15°C° 0 mm 2 mps 743 mmHg 92%
06:00 +16°C° 0 mm 2 mps 743 mmHg 89%
07:00 +18°C° 0 mm 2 mps 743 mmHg 83%
08:00 +20°C° 0 mm 3 mps 743 mmHg 77%
09:00 +21°C° 0 mm 3 mps 743 mmHg 71%
10:00 +22°C° 0.1 mm 4 mps 743 mmHg 67%
11:00 +23°C° 0.1 mm 4 mps 743 mmHg 64%
12:00 +26°C° 0.1 mm 4 mps 743 mmHg 60%
13:00 +26°C° 0.5 mm 4 mps 743 mmHg 60%
14:00 +26°C° 0.5 mm 5 mps 743 mmHg 60%
15:00 +26°C° 0.5 mm 5 mps 743 mmHg 59%
16:00 +25°C° 0.6 mm 4 mps 743 mmHg 66%
17:00 +23°C° 0.6 mm 4 mps 743 mmHg 72%
18:00 +21°C° 0.6 mm 4 mps 742 mmHg 78%
19:00 +20°C° 0.2 mm 3 mps 743 mmHg 82%
20:00 +19°C° 0.2 mm 3 mps 743 mmHg 87%
21:00 +18°C° 0.2 mm 2 mps 743 mmHg 92%
22:00 +17°C° 0.1 mm 2 mps 743 mmHg 93%
23:00 +17°C° 0.1 mm 2 mps 743 mmHg 94%

Tomorrow, 14 June, Monday

Time Temperature Precipitation Wind Pressure Humidity
00:00 +16°C° 0.1 mm 2 mps 743 mmHg 96%
01:00 +16°C° 0 mm 2 mps 743 mmHg 96%
02:00 +16°C° 0 mm 2 mps 743 mmHg 96%
03:00 +15°C° 0 mm 2 mps 744 mmHg 97%
04:00 +16°C° 0 mm 2 mps 744 mmHg 95%
05:00 +17°C° 0 mm 2 mps 744 mmHg 92%
06:00 +18°C° 0 mm 3 mps 744 mmHg 90%
07:00 +20°C° 0 mm 3 mps 745 mmHg 82%
08:00 +21°C° 0 mm 3 mps 745 mmHg 74%
09:00 +24°C° 0 mm 3 mps 745 mmHg 66%
10:00 +25°C° 0.1 mm 4 mps 745 mmHg 63%
11:00 +26°C° 0.1 mm 4 mps 745 mmHg 60%
12:00 +27°C° 0.1 mm 4 mps 745 mmHg 57%
13:00 +26°C° 0.4 mm 4 mps 745 mmHg 60%
14:00 +26°C° 0.4 mm 4 mps 745 mmHg 62%
15:00 +26°C° 0.4 mm 4 mps 745 mmHg 64%
16:00 +25°C° 0.6 mm 4 mps 745 mmHg 70%
17:00 +24°C° 0.6 mm 3 mps 745 mmHg 76%
18:00 +22°C° 0.6 mm 3 mps 745 mmHg 82%
19:00 +21°C° 0.6 mm 2 mps 745 mmHg 85%
20:00 +20°C° 0.6 mm 2 mps 745 mmHg 89%
21:00 +18°C° 0.6 mm 2 mps 745 mmHg 92%
22:00 +19°C° 0.1 mm 1 mps 745 mmHg 92%
23:00 +18°C° 0.1 mm 1 mps 745 mmHg 93%

Day after tomorrow, 15 June, Tuesday

Time Temperature Precipitation Wind Pressure Humidity
00:00 +18°C° 0.1 mm 1 mps 745 mmHg 93%
01:00 +16°C° 0 mm 0 mps 745 mmHg 93%
02:00 +16°C° 0 mm 0 mps 745 mmHg 93%
03:00 +15°C° 0 mm 0 mps 745 mmHg 92%
04:00 +16°C° 0 mm 0 mps 745 mmHg 90%
05:00 +18°C° 0 mm 0 mps 745 mmHg 88%
06:00 +19°C° 0 mm 0 mps 745 mmHg 86%
07:00 +20°C° 0 mm 0 mps 745 mmHg 79%
08:00 +24°C° 0 mm 1 mps 745 mmHg 71%
09:00 +26°C° 0 mm 1 mps 745 mmHg 63%
10:00 +26°C° 0.2 mm 2 mps 745 mmHg 62%
11:00 +26°C° 0.2 mm 2 mps 745 mmHg 62%
12:00 +27°C° 0.2 mm 2 mps 745 mmHg 61%
13:00 +26°C° 0.4 mm 2 mps 744 mmHg 66%
14:00 +26°C° 0.4 mm 2 mps 744 mmHg 71%
15:00 +25°C° 0.4 mm 2 mps 744 mmHg 76%
16:00 +24°C° 0.2 mm 2 mps 744 mmHg 79%
17:00 +24°C° 0.2 mm 2 mps 744 mmHg 81%
18:00 +23°C° 0.2 mm 2 mps 743 mmHg 84%
19:00 +21°C° 0.1 mm 2 mps 743 mmHg 86%
20:00 +20°C° 0.1 mm 2 mps 743 mmHg 88%
21:00 +20°C° 0.1 mm 1 mps 743 mmHg 90%
22:00 +20°C° 0 mm 1 mps 743 mmHg 90%
23:00 +19°C° 0 mm 1 mps 743 mmHg 91%

16 June, Wednesday

Time Temperature Precipitation Wind Pressure Humidity
00:00 +19°C° 0 mm 1 mps 743 mmHg 92%
01:00 +19°C° 0 mm 1 mps 743 mmHg 93%
02:00 +18°C° 0 mm 1 mps 743 mmHg 94%
03:00 +18°C° 0 mm 1 mps 743 mmHg 95%
04:00 +19°C° 0 mm 1 mps 743 mmHg 92%
05:00 +19°C° 0 mm 2 mps 743 mmHg 89%
06:00 +20°C° 0 mm 2 mps 743 mmHg 87%
07:00 +23°C° 0 mm 2 mps 743 mmHg 78%
08:00 +24°C° 0 mm 3 mps 742 mmHg 69%
09:00 +26°C° 0 mm 3 mps 742 mmHg 60%
10:00 +27°C° 0 mm 3 mps 742 mmHg 55%
11:00 +28°C° 0 mm 4 mps 742 mmHg 51%
12:00 +29°C° 0 mm 4 mps 742 mmHg 46%
13:00 +29°C° 0 mm 4 mps 741 mmHg 48%
14:00 +29°C° 0 mm 3 mps 741 mmHg 50%
15:00 +29°C° 0 mm 3 mps 741 mmHg 51%
16:00 +28°C° 0 mm 3 mps 741 mmHg 58%
17:00 +28°C° 0 mm 2 mps 740 mmHg 64%
18:00 +27°C° 0 mm 2 mps 740 mmHg 70%
19:00 +25°C° 0 mm 1 mps 740 mmHg 75%
20:00 +23°C° 0 mm 1 mps 740 mmHg 80%
21:00 +20°C° 0 mm 0 mps 740 mmHg 85%
22:00 +21°C° 0.2 mm 1 mps 740 mmHg 89%
23:00 +18°C° 0.2 mm 2 mps 740 mmHg 93%

17 June, Thursday

Time Temperature Precipitation Wind Pressure Humidity
00:00 +17°C° 0.2 mm 3 mps 740 mmHg 97%
01:00 +17°C° 0 mm 4 mps 741 mmHg 97%
02:00 +17°C° 0 mm 4 mps 741 mmHg 97%
03:00 +15°C° 0 mm 5 mps 741 mmHg 97%
04:00 +15°C° 0 mm 5 mps 742 mmHg 95%
05:00 +15°C° 0 mm 5 mps 742 mmHg 92%
06:00 +16°C° 0 mm 5 mps 743 mmHg 90%
07:00 +17°C° 0 mm 5 mps 743 mmHg 80%
08:00 +19°C° 0 mm 6 mps 744 mmHg 69%
09:00 +21°C° 0 mm 6 mps 744 mmHg 59%
10:00 +21°C° 0 mm 6 mps 745 mmHg 54%
11:00 +22°C° 0 mm 6 mps 745 mmHg 50%
12:00 +22°C° 0 mm 6 mps 746 mmHg 45%
13:00 +22°C° 0 mm 6 mps 746 mmHg 45%
14:00 +22°C° 0 mm 6 mps 746 mmHg 44%
15:00 +23°C° 0 mm 6 mps 747 mmHg 43%
16:00 +22°C° 0 mm 5 mps 747 mmHg 46%
17:00 +22°C° 0 mm 4 mps 747 mmHg 50%
18:00 +21°C° 0 mm 4 mps 748 mmHg 53%
19:00 +19°C° 0 mm 3 mps 748 mmHg 60%
20:00 +17°C° 0 mm 3 mps 749 mmHg 66%
21:00 +16°C° 0 mm 2 mps 749 mmHg 72%
22:00 +15°C° 0 mm 2 mps 749 mmHg 74%
23:00 +14°C° 0 mm 2 mps 750 mmHg 75%

18 June, Friday

Time Temperature Precipitation Wind Pressure Humidity
00:00 +13°C° 0 mm 2 mps 750 mmHg 77%
01:00 +13°C° 0 mm 2 mps 750 mmHg 76%
02:00 +12°C° 0 mm 2 mps 750 mmHg 76%
03:00 +12°C° 0 mm 2 mps 751 mmHg 75%
04:00 +13°C° 0 mm 2 mps 751 mmHg 71%
05:00 +15°C° 0 mm 2 mps 751 mmHg 67%
06:00 +16°C° 0 mm 2 mps 752 mmHg 64%
07:00 +18°C° 0 mm 2 mps 752 mmHg 58%
08:00 +19°C° 0 mm 2 mps 752 mmHg 53%
09:00 +21°C° 0 mm 2 mps 752 mmHg 48%
10:00 +23°C° 0 mm 2 mps 752 mmHg 46%
11:00 +24°C° 0 mm 2 mps 752 mmHg 43%
12:00 +25°C° 0 mm 3 mps 752 mmHg 41%
13:00 +25°C° 0 mm 3 mps 751 mmHg 41%
14:00 +25°C° 0 mm 3 mps 751 mmHg 40%
15:00 +26°C° 0 mm 3 mps 751 mmHg 40%
16:00 +25°C° 0 mm 2 mps 751 mmHg 47%
17:00 +24°C° 0 mm 2 mps 751 mmHg 54%
18:00 +24°C° 0 mm 1 mps 751 mmHg 61%
19:00 +22°C° 0 mm 1 mps 751 mmHg 65%
20:00 +20°C° 0 mm 1 mps 751 mmHg 69%
21:00 +18°C° 0 mm 1 mps 751 mmHg 73%
22:00 +18°C° 0 mm 1 mps 751 mmHg 74%
23:00 +16°C° 0 mm 1 mps 751 mmHg 75%
Show more